TimeCST,TemperatureF,Dew PointF,Humidity,Sea Level PressureIn,VisibilityMPH,Wind Direction,Wind SpeedMPH,Gust SpeedMPH,PrecipitationIn,Events,Conditions,WindDirDegrees,DateUTC
12:54 AM,39.9,32.0,73,30.01,10.0,West,5.8,-,N/A,,Clear,270,2012-11-19 06:54:00
1:54 AM,35.1,28.9,78,30.02,10.0,NW,4.6,-,N/A,,Clear,320,2012-11-19 07:54:00
2:54 AM,37.0,30.0,76,30.03,10.0,WNW,8.1,-,N/A,,Clear,300,2012-11-19 08:54:00
3:54 AM,35.1,27.0,72,30.04,10.0,WNW,6.9,-,N/A,,Clear,300,2012-11-19 09:54:00
4:54 AM,35.1,27.0,72,30.04,10.0,NNW,5.8,-,N/A,,Clear,330,2012-11-19 10:54:00
5:54 AM,34.0,26.1,73,30.07,10.0,WNW,9.2,-,N/A,,Clear,300,2012-11-19 11:54:00
6:54 AM,32.0,25.0,75,30.11,10.0,NW,6.9,-,N/A,,Clear,320,2012-11-19 12:54:00
7:54 AM,33.1,24.1,70,30.13,10.0,NW,6.9,-,N/A,,Clear,320,2012-11-19 13:54:00
8:54 AM,42.1,27.0,55,30.14,10.0,NNW,6.9,-,N/A,,Clear,340,2012-11-19 14:54:00
9:54 AM,55.9,30.9,39,30.13,10.0,NNE,9.2,-,N/A,,Clear,30,2012-11-19 15:54:00
10:54 AM,64.9,30.9,28,30.14,10.0,NE,13.8,-,N/A,,Clear,40,2012-11-19 16:54:00
11:54 AM,69.1,30.0,23,30.13,10.0,NE,16.1,26.5,N/A,,Clear,50,2012-11-19 17:54:00
12:54 PM,70.0,28.0,21,30.12,10.0,NE,16.1,-,N/A,,Clear,40,2012-11-19 18:54:00
1:54 PM,71.1,27.0,19,30.12,10.0,NNE,10.4,-,N/A,,Clear,30,2012-11-19 19:54:00
2:54 PM,71.1,28.0,20,30.11,10.0,NE,11.5,-,N/A,,Clear,50,2012-11-19 20:54:00
3:54 PM,70.0,28.0,21,30.12,10.0,NE,11.5,-,N/A,,Clear,50,2012-11-19 21:54:00
4:54 PM,66.0,30.0,26,30.14,10.0,NE,6.9,-,N/A,,Clear,50,2012-11-19 22:54:00
5:54 PM,55.9,28.9,36,30.17,10.0,ENE,6.9,-,N/A,,Clear,70,2012-11-19 23:54:00
6:54 PM,53.1,30.0,41,30.20,10.0,East,8.1,-,N/A,,Clear,80,2012-11-20 00:54:00
7:54 PM,52.0,30.9,45,30.21,10.0,East,8.1,-,N/A,,Clear,90,2012-11-20 01:54:00
8:54 PM,52.0,30.9,45,30.20,10.0,East,8.1,-,N/A,,Clear,90,2012-11-20 02:54:00
9:54 PM,48.9,30.0,48,30.18,10.0,East,5.8,-,N/A,,Clear,90,2012-11-20 03:54:00
10:54 PM,48.9,30.0,48,30.17,10.0,ENE,8.1,-,N/A,,Clear,70,2012-11-20 04:54:00
11:54 PM,45.0,28.9,53,30.17,10.0,ENE,6.9,-,N/A,,Clear,60,2012-11-20 05:54:00